This is the latest recevied weather packets stored in our database for station/object K7FLA. If no packets are shown the sender has not sent any weather packets the latest 10 day(s).
| Time | Temp. | Humidity | Pressure | Rain* | Wind** | Luminosity | Snow |
|---|---|---|---|---|---|---|---|
| 1778097389 | 23.89° C | 34% | 1097.5 hPa | 0 mm | - | 850 W/m² | - |
| 1778097085 | 24.44° C | 37% | 1097.6 hPa | 0 mm | - | 852 W/m² | - |
| 1778096783 | 24.44° C | 32% | 1097.8 hPa | 0 mm | - | 854 W/m² | - |
| 1778096479 | 24.44° C | 38% | 1097.9 hPa | 0 mm | - | 856 W/m² | - |
| 1778096177 | 24.44° C | 34% | 1097.9 hPa | 0 mm | - | 855 W/m² | - |
| 1778095874 | 23.89° C | 38% | 1097.7 hPa | 0 mm | - | 856 W/m² | - |
| 1778095571 | 23.89° C | 36% | 1097.9 hPa | 0 mm | - | 858 W/m² | - |
| 1778095267 | 23.89° C | 38% | 1098 hPa | 0 mm | - | 856 W/m² | - |
| 1778094963 | 23.33° C | 37% | 1097.9 hPa | 0 mm | - | 852 W/m² | - |
| 1778094659 | 23.33° C | 37% | 1098.1 hPa | 0 mm | - | 853 W/m² | - |
| 1778094357 | 23.89° C | 37% | 1098.1 hPa | 0 mm | - | 851 W/m² | - |
| 1778094054 | 23.89° C | 34% | 1098.2 hPa | 0 mm | - | 844 W/m² | - |
| 1778093751 | 23.89° C | 40% | 1098.3 hPa | 0 mm | - | 842 W/m² | - |
| 1778093447 | 23.89° C | 35% | 1098.1 hPa | 0 mm | - | 839 W/m² | - |
| 1778093145 | 23.33° C | 40% | 1098.5 hPa | 0 mm | - | 837 W/m² | - |
| 1778092842 | 23.33° C | 37% | 1098.4 hPa | 0 mm | - | 831 W/m² | - |
| 1778092538 | 23.33° C | 41% | 1098.5 hPa | 0 mm | - | 827 W/m² | - |
| 1778092235 | 22.78° C | 39% | 1098.4 hPa | 0 mm | - | 821 W/m² | - |
| 1778091932 | 22.78° C | 37% | 1098.4 hPa | 0 mm | - | 817 W/m² | - |
| 1778091629 | 22.78° C | 38% | 1098.7 hPa | 0 mm | - | 810 W/m² | - |
| 1778091327 | 22.22° C | 40% | 1098.7 hPa | 0 mm | - | 802 W/m² | - |
| 1778091023 | 22.22° C | 37% | 1098.7 hPa | 0 mm | - | 798 W/m² | - |
| 1778090720 | 22.22° C | 38% | 1098.7 hPa | 0 mm | - | 787 W/m² | - |
| 1778090417 | 22.22° C | 40% | 1098.7 hPa | 0 mm | - | 779 W/m² | - |
| 1778090113 | 22.22° C | 44% | 1098.5 hPa | 0 mm | - | 772 W/m² | - |
* Rain latest hour (hover to see other rain measurements)
** Current wind speed in m/s (hover to see current wind gust speed)